Regional Weather Roundup
Issued by NWS

Home | Current Version | Previous Version | Text Only | Print | Product List | Glossary On
Versions: 1 2 3 4 5 6 7 8 9 10 11 12 13 14 15 16 17 18 19 20 21 22 23 24 25 26 27
000
ASUS46 KSEW 241110
RWRWA

WASHINGTON REGIONAL WEATHER ROUNDUP
NATIONAL WEATHER SERVICE SEATTLE WA
400 AM PDT THU APR 24 2014

NOTE:"FAIR" INDICATES FEW OR NO CLOUDS BELOW 12,000 FEET WITH NO
SIGNIFICANT WEATHER AND/OR OBSTRUCTIONS TO VISIBILITY.

WAZ505-507>509-241200-
SEATTLE, TACOMA, EVERETT, AND VICINITY

CITY           SKY/WX    TMP DP  RH WIND       PRES   REMARKS
EVERETT        CLOUDY    48  45  89 SE8G18    29.59F
BOEING FIELD   CLOUDY    52  48  86 SE10      29.60F
RENTON         LGT RAIN  49  49 100 E3        29.61S
SEATAC AIRPORT LGT RAIN  52  47  83 S13       29.61S
JBLM-MCCHORD   LGT RAIN  52  52 100 S9        29.61F
PUYALLUP         N/A     52  46  82 S10G20    29.62S
JBLM-FT LEWIS  DRIZZLE   52  50  93 S12       29.61S
TACOMA NARROWS CLOUDY    51  48  89 S15       29.61R
$$

WAZ001-503-506-510-514-515-241200-
NORTH INTERIOR

CITY           SKY/WX    TMP DP  RH WIND       PRES   REMARKS
BELLINGHAM     LGT RAIN  46  44  93 NE9       29.57F
FRIDAY HARBOR  LGT RAIN  49  48  97 SE12      29.54F FOG
EASTSOUND      LGT RAIN  50  48  93 S10G22    29.53R
PORT ANGELES   CLOUDY    46  45  96 W3        29.52F
NAS WHIDBEY    CLOUDY    53  47  79 SE25G32   29.56S
BURLINGTON     CLOUDY    48  46  93 E14G20    29.58F
$$

WAZ020-022-039-040-504-511-512-241200-
SOUTHWEST INTERIOR

CITY           SKY/WX    TMP DP  RH WIND       PRES   REMARKS
SHELTON        LGT RAIN  52  50  93 S10       29.56F FOG
OLYMPIA        LGT RAIN  52  49  89 S17G25    29.60F FOG
CHEHALIS       LGT RAIN  52  52 100 S12G20    29.65R
KELSO          CLOUDY    54  46  76 SE14G21   29.71F
VANCOUVER      LGT RAIN  52  49  89 S9        29.72F
SCAPPOOSE, OR  CLOUDY    52  50  93 S8        29.70F
PORTLAND, OR   CLOUDY    52  49  89 S13G22    29.72F
$$

WAZ021-516-517-241200-
WASHINGTON COAST

CITY           SKY/WX    TMP DP  RH WIND       PRES   REMARKS
FORKS          CLOUDY    48  47  96 SW9       29.57R FOG
HOQUIAM        CLOUDY    51  50  96 SW21      29.61R
ASTORIA, OR    RAIN      52  50  93 W21G29    29.65R FOG
$$

WAZ019-023-024-040-518-519-241200-
CASCADE MOUNTAINS AND COLUMBIA GORGE

CITY           SKY/WX    TMP DP  RH WIND       PRES   REMARKS
STAMPEDE PASS  NOT AVBL
TROUTDALE, OR  LGT RAIN  52  49  89 SE8       29.72F
THE DALLES, OR LGT RAIN  49  48  97 SE3       29.75S
$$

WAZ026-027-041>044-520-521-241200-
EAST SLOPES

CITY           SKY/WX    TMP DP  RH WIND       PRES   REMARKS
OMAK           RAIN      45  43  93 S5        29.69F
WENATCHEE      LGT RAIN  46  42  86 NW6       29.68S
ELLENSBURG     CLOUDY    47  42  83 NE3       29.67F
YAKIMA         CLOUDY    53  42  66 S18G29    29.68S
$$

WAZ028-034-035-241200-
COLUMBIA BASIN

CITY           SKY/WX    TMP DP  RH WIND       PRES   REMARKS
EPHRATA        CLOUDY    48  46  93 S13       29.69S
MOSES LAKE     LGT RAIN  49  47  93 S15       29.70F
HANFORD        NOT AVBL
PASCO          CLOUDY    51  48  89 E9        29.74S
HERMISTON, OR  CLOUDY    54  46  74 CALM      29.74R
$$

WAZ036>038-241200-
NORTHEAST WASHINGTON

CITY           SKY/WX    TMP DP  RH WIND       PRES   REMARKS
SPOKANE GEIGER LGT RAIN  41  39  93 SE8       29.75F
SPOKANE FELTS  LGT RAIN  43  40  89 E7        29.78F
FAIRCHILD AFB  RAIN      40  40  99 SE9       29.74F
COEURDALENE,ID CLOUDY    41  37  87 CALM      29.79F
DEER PARK      LGT RAIN  41  39  93 E3        29.77F
$$

WAZ029>033-241200-
SOUTHEAST WASHINGTON

CITY           SKY/WX    TMP DP  RH WIND       PRES   REMARKS
PULLMAN        LGT RAIN  42  39  89 SE10      29.80F
LEWISTON, ID   LGT RAIN  45  39  79 E12       29.80F
WALLA WALLA    LGT RAIN  52  44  74 SE15      29.76F
PENDLETON, OR  LGT RAIN  50  43  77 SW8       29.75S
$$



USA.gov is the U.S. government's official web portal to all federal, state and local government web resources and services.